Regional Weather Roundup
Issued by NWS Sioux Falls, SD

Home | Current Version | Previous Version | Text Only | Print | Product List | Glossary Off
Versions: 1 2 3 4 5 6 7 8 9 10 11 12 13 14 15 16 17 18 19 20 21 22 23 24 25 26 27 28 29 30 31 32 33 34 35 36 37 38 39 40 41 42 43 44 45 46 47 48 49 50

000
ASUS43 KFSD 220902
RWRFSD

WEATHER ROUNDUP FOR SE SOUTH DAKOTA/SW MINNESOTA/NW IOWA
NATIONAL WEATHER SERVICE SIOUX FALLS SD
400 AM CDT MON SEP 22 2014

NOTE: "FAIR" INDICATES FEW OR NO CLOUDS BELOW 12,000 FEET WITH NO
SIGNIFICANT WEATHER AND OR OBSTRUCTIONS TO VISIBILITY.


SDZ038>040-050-052>070-221000-
SOUTHEAST SOUTH DAKOTA

CITY           SKY/WX    TMP DP  RH WIND       PRES   REMARKS
CHAMBERLAIN    CLEAR     46  42  86 CALM      30.25S
HURON          CLEAR     50  43  77 S5        30.24S
MADISON        FAIR      45  45 100 S7        30.27S
MITCHELL       CLEAR     45  43  93 SE3       30.26F
SIOUX FALLS    CLEAR     45  43  93 CALM      30.27F
WINNER         FAIR      52  42  69 S9        30.25S
YANKTON        CLEAR     45  43  93 NE3       30.28S
$$

MNZ071-072-080-081-089-090-097-098-221000-
SOUTHWEST MINNESOTA

CITY           SKY/WX    TMP DP  RH WIND       PRES   REMARKS
FAIRMONT       CLEAR     45  41  87 W3        30.26R
JACKSON        CLEAR     41  39  93 CALM      30.27R
LUVERNE        PTCLDY    41  37  87 CALM      30.28S
MARSHALL       CLEAR     46  43  87 SW8       30.24S
MONTEVIDEO     CLEAR     46  45  93 CALM      30.25R
PIPESTONE      CLEAR     45  43  93 SW3       30.27S
REDWOOD FALLS  CLEAR     44  42  93 CALM      30.24F
TRACY          CLEAR     49  46  92 CALM      30.25S
WINDOM         CLEAR     43  43 100 CALM      30.26S
WORTHINGTON    CLEAR     41  39  93 SW5       30.28S
$$

IAZ001>003-012>014-020>022-031-032-NEZ013-014-SDZ071-221000-
NORTHWEST IOWA

CITY           SKY/WX    TMP DP  RH WIND       PRES   REMARKS
CHEROKEE       CLEAR     43  43 100 CALM      30.29R
DENISON        FOG       45  45 100 CALM      30.28R VSB 1/2
ESTHERVILLE    CLEAR     42  41  96 NW3       30.26S
LE MARS        CLEAR     45  43  93 S3        30.30R
ORANGE CITY    CLEAR     50  46  87 CALM      30.29R
SHELDON        CLEAR     41  41 100 CALM      30.28R
SIOUX CITY     FOG       45  44  97 CALM      30.29S VSB 3/4
SPENCER        CLEAR     40  39  97 W7        30.27S
$$

ABBREVIATIONS USED IN REMARKS
   TC - TEMPERATURE IN CELSIUS
  WCI - WIND CHILL INDEX
   HX - HEAT INDEX
  VSB - VISIBILITY




USA.gov is the U.S. government's official web portal to all federal, state and local government web resources and services.